| time (UTC) | temp F | wind direction | speed MPH | gust MPH | rain 1hr in | rain 24hr in | rain mn in | humidity % | barometer mb |
| 20260901210042 | 57 | 41 | 0.0 | 3.0 | 0.00 | 0.00 | 0.00 | 92 | 1007.4 |
| 20260901204541 | 57 | 78 | 0.0 | 2.0 | 0.00 | 0.00 | 0.00 | 93 | 1007.4 |
| 20260901203051 | 56 | 39 | 0.0 | 1.0 | 0.00 | 0.00 | 0.00 | 93 | 1007.3 |
| 20260901201540 | 55 | 39 | 0.0 | 1.0 | 0.00 | 0.00 | 0.00 | 94 | 1007.3 |
| 20260901200050 | 55 | 39 | 0.0 | 0.0 | 0.00 | 0.00 | 0.00 | 95 | 1007.3 |
| 20260901194538 | 54 | 39 | 0.0 | 0.0 | 0.00 | 0.00 | 0.00 | 94 | 1007.2 |
| 20260901193055 | 54 | 39 | 0.0 | 0.0 | 0.00 | 0.00 | 0.00 | 93 | 1007.3 |
| 20260901191538 | 55 | 39 | 0.0 | 0.0 | 0.00 | 0.00 | 0.00 | 92 | 1007.2 |
| 20260901190036 | 56 | 39 | 0.0 | 0.0 | 0.00 | 0.00 | 0.00 | 91 | 1007.2 |
| 20260901184539 | 57 | 39 | 0.0 | 0.0 | 0.00 | 0.00 | 0.00 | 90 | 1007.0 |
| 20260901183035 | 58 | 39 | 0.0 | 0.0 | 0.00 | 0.00 | 0.00 | 88 | 1007.0 |
| 20260901181537 | 59 | 39 | 0.0 | 0.0 | 0.00 | 0.00 | 0.00 | 86 | 1006.9 |
| 20260901180032 | 61 | 39 | 0.0 | 0.0 | 0.00 | 0.00 | 0.00 | 83 | 1006.9 |
| 20260901174534 | 62 | 39 | 0.0 | 0.0 | 0.00 | 0.00 | 0.00 | 80 | 1006.8 |
| 20260901173031 | 64 | 39 | 0.0 | 1.0 | 0.00 | 0.00 | 0.00 | 77 | 1006.8 |
| 20260901171531 | 65 | 39 | 0.0 | 1.0 | 0.00 | 0.00 | 0.00 | 74 | 1006.6 |
| 20260901170029 | 66 | 136 | 0.0 | 1.0 | 0.00 | 0.00 | 0.00 | 73 | 1006.6 |
| 20260901164528 | 66 | 117 | 0.0 | 3.0 | 0.00 | 0.00 | 0.00 | 70 | 1006.6 |
| 20260901163028 | 67 | 148 | 0.0 | 0.0 | 0.00 | 0.00 | 0.00 | 69 | 1006.5 |
| 20260901161533 | 69 | 11 | 0.0 | 5.0 | 0.00 | 0.00 | 0.00 | 64 | 1006.4 |
| 20260901160033 | 69 | 117 | 0.0 | 4.0 | 0.00 | 0.00 | 0.00 | 63 | 1006.5 |
| 20260901154526 | 69 | 107 | 1.0 | 7.0 | 0.00 | 0.00 | 0.00 | 62 | 1006.4 |
| 20260901153025 | 70 | 96 | 0.0 | 4.0 | 0.00 | 0.00 | 0.00 | 61 | 1006.3 |
| 20260901151525 | 70 | 139 | 2.0 | 5.0 | 0.00 | 0.00 | 0.00 | 59 | 1006.3 |
| 20260901150025 | 71 | 122 | 2.0 | 6.0 | 0.00 | 0.00 | 0.00 | 60 | 1006.4 |
| 20260901144524 | 71 | 121 | 2.0 | 5.0 | 0.00 | 0.00 | 0.00 | 60 | 1006.3 |
| 20260901143024 | 71 | 142 | 1.0 | 3.0 | 0.00 | 0.00 | 0.00 | 61 | 1006.3 |
| 20260901141532 | 70 | 133 | 0.0 | 7.0 | 0.00 | 0.00 | 0.00 | 63 | 1006.2 |
| 20260901140023 | 71 | 44 | 2.0 | 8.0 | 0.00 | 0.00 | 0.00 | 62 | 1006.3 |
| 20260901134522 | 71 | 115 | 2.0 | 4.0 | 0.00 | 0.00 | 0.00 | 59 | 1006.3 |
| 20260901133019 | 69 | 133 | 0.0 | 1.0 | 0.00 | 0.00 | 0.00 | 69 | 1006.3 |
| 20260901131523 | 68 | 133 | 0.0 | 3.0 | 0.00 | 0.00 | 0.00 | 69 | 1006.4 |
| 20260901130018 | 67 | 196 | 0.0 | 3.0 | 0.00 | 0.00 | 0.00 | 71 | 1006.5 |
| 20260901124518 | 68 | 127 | 1.0 | 4.0 | 0.00 | 0.00 | 0.00 | 66 | 1006.4 |
| 20260901123020 | 70 | 170 | 2.0 | 5.0 | 0.00 | 0.00 | 0.00 | 61 | 1006.4 |
| 20260901121516 | 68 | 150 | 0.0 | 0.0 | 0.00 | 0.00 | 0.00 | 70 | 1006.3 |
| 20260901120035 | 67 | 150 | 0.0 | 3.0 | 0.00 | 0.00 | 0.00 | 67 | 1006.4 |
| 20260901114518 | 69 | 119 | 0.0 | 3.0 | 0.00 | 0.00 | 0.00 | 65 | 1006.4 |
| 20260901113014 | 69 | 163 | 0.0 | 3.0 | 0.00 | 0.00 | 0.00 | 63 | 1006.3 |
| 20260901111513 | 69 | 144 | 0.0 | 4.0 | 0.00 | 0.00 | 0.00 | 67 | 1006.4 |
| 20260901110012 | 68 | 165 | 0.0 | 0.0 | 0.00 | 0.00 | 0.00 | 68 | 1006.4 |
| 20260901104512 | 70 | 165 | 0.0 | 4.0 | 0.00 | 0.00 | 0.00 | 63 | 1006.3 |
| 20260901103008 | 69 | 134 | 0.0 | 2.0 | 0.00 | 0.00 | 0.00 | 67 | 1006.2 |
| 20260901101505 | 68 | 130 | 1.0 | 3.0 | 0.00 | 0.00 | 0.00 | 67 | 1006.2 |
| 20260901100003 | 68 | 147 | 0.0 | 6.0 | 0.00 | 0.00 | 0.00 | 66 | 1006.1 |
| 20260901094505 | 68 | 145 | 0.0 | 3.0 | 0.00 | 0.00 | 0.00 | 68 | 1006.1 |
| 20260901093104 | 67 | 162 | 1.0 | 4.0 | 0.00 | 0.00 | 0.00 | 67 | 1006.1 |
| 20260901091601 | 66 | 290 | 0.0 | 5.0 | 0.00 | 0.00 | 0.00 | 71 | 1006.0 |
| 20260901090055 | 66 | 140 | 0.0 | 4.0 | 0.00 | 0.00 | 0.00 | 74 | 1005.9 |
| 20260901084555 | 66 | 122 | 1.0 | 6.0 | 0.00 | 0.00 | 0.00 | 73 | 1005.9 |
| 20260901083048 | 65 | 145 | 0.0 | 2.0 | 0.00 | 0.00 | 0.00 | 78 | 1005.9 |
| 20260901081548 | 64 | 145 | 1.0 | 5.0 | 0.00 | 0.00 | 0.00 | 78 | 1005.8 |
| 20260901080047 | 65 | 144 | 1.0 | 4.0 | 0.00 | 0.00 | 0.00 | 79 | 1005.8 |
| 20260901074542 | 64 | 105 | 0.0 | 4.0 | 0.00 | 0.00 | 0.00 | 82 | 1005.7 |
| 20260901073039 | 63 | 141 | 0.0 | 1.0 | 0.00 | 0.00 | 0.00 | 84 | 1005.6 |
| 20260901071536 | 63 | 141 | 0.0 | 1.0 | 0.00 | 0.00 | 0.00 | 89 | 1005.5 |
| 20260901070033 | 61 | 141 | 0.0 | 0.0 | 0.00 | 0.00 | 0.00 | 97 | 1005.5 |
| 20260901064538 | 59 | 141 | 0.0 | 0.0 | 0.00 | 0.00 | 0.00 | 98 | 1005.4 |
| 20260901063031 | 59 | 141 | 0.0 | 1.0 | 0.00 | 0.00 | 0.00 | 98 | 1005.3 |
| 20260901061525 | 59 | 141 | 0.0 | 0.0 | 0.00 | 0.00 | 0.00 | 99 | 1005.3 |
| 20260901060021 | 56 | 141 | 0.0 | 0.0 | 0.00 | 0.00 | 0.00 | 99 | 1005.4 |
| 20260901054520 | 55 | 141 | 0.0 | 0.0 | 0.00 | 0.00 | 0.00 | 99 | 1005.2 |
| 20260901053018 | 55 | 141 | 0.0 | 0.0 | 0.00 | 0.00 | 0.00 | 99 | 1005.2 |
| 20260901051516 | 55 | 141 | 0.0 | 0.0 | 0.00 | 0.00 | 0.00 | 99 | 1005.1 |
| 20260901050016 | 54 | 141 | 0.0 | 0.0 | 0.00 | 0.00 | 0.00 | 99 | 1005.1 |
| 20260901044514 | 54 | 141 | 0.0 | 0.0 | 0.00 | 0.00 | 0.00 | 99 | 1005.0 |
| 20260901043016 | 54 | 141 | 0.0 | 0.0 | 0.00 | 0.00 | 0.00 | 99 | 1004.9 |
| 20260901041513 | 54 | 141 | 0.0 | 0.0 | 0.00 | 0.00 | 0.00 | 99 | 1004.8 |
| 20260901040013 | 54 | 141 | 0.0 | 0.0 | 0.00 | 0.00 | 0.00 | 98 | 1004.9 |
| 20260901034515 | 55 | 141 | 0.0 | 0.0 | 0.00 | 0.00 | 0.00 | 99 | 1004.8 |
| 20260901033012 | 55 | 141 | 0.0 | 0.0 | 0.00 | 0.00 | 0.00 | 99 | 1004.9 |
| 20260901031510 | 55 | 141 | 0.0 | 0.0 | 0.00 | 0.00 | 0.00 | 98 | 1004.8 |
| 20260901030010 | 55 | 141 | 0.0 | 1.0 | 0.00 | 0.00 | 0.00 | 99 | 1004.9 |
| 20260901024510 | 55 | 141 | 0.0 | 0.0 | 0.00 | 0.00 | 0.00 | 99 | 1004.9 |
| 20260901023025 | 55 | 141 | 0.0 | 0.0 | 0.00 | 0.00 | 0.00 | 99 | 1004.9 |
| 20260901021515 | 55 | 141 | 0.0 | 0.0 | 0.00 | 0.00 | 0.00 | 98 | 1004.8 |
| 20260901020008 | 55 | 141 | 0.0 | 0.0 | 0.00 | 0.01 | 0.00 | 99 | 1004.7 |
| 20260901014506 | 54 | 141 | 0.0 | 0.0 | 0.00 | 0.01 | 0.00 | 98 | 1004.7 |
| 20260901013006 | 54 | 141 | 0.0 | 0.0 | 0.00 | 0.01 | 0.00 | 98 | 1004.7 |
| 20260901011505 | 54 | 141 | 0.0 | 0.0 | 0.00 | 0.01 | 0.00 | 98 | 1004.6 |
| 20260901010007 | 54 | 141 | 0.0 | 0.0 | 0.00 | 0.01 | 0.00 | 98 | 1004.7 |
| 20260901004504 | 54 | 141 | 0.0 | 0.0 | 0.00 | 0.01 | 0.00 | 98 | 1004.7 |
| 20260901003103 | 54 | 141 | 0.0 | 0.0 | 0.00 | 0.01 | 0.00 | 98 | 1004.6 |
| 20260901001503 | 54 | 141 | 0.0 | 0.0 | 0.00 | 0.01 | 0.00 | 98 | 1004.7 |
| 20260901000002 | 54 | 141 | 0.0 | 0.0 | 0.00 | 0.06 | 0.00 | 98 | 1004.6 |
| 20260831234502 | 55 | 141 | 0.0 | 0.0 | 0.00 | 0.06 | 0.00 | 98 | 1004.5 |
| 20260831233002 | 55 | 141 | 0.0 | 0.0 | 0.00 | 0.06 | 0.00 | 98 | 1004.6 |
| 20260831231609 | 55 | 141 | 0.0 | 0.0 | 0.00 | 0.06 | 0.00 | 98 | 1004.5 |
| 20260831230058 | 55 | 141 | 0.0 | 0.0 | 0.00 | 0.06 | 0.00 | 98 | 1004.7 |
| 20260831224557 | 54 | 141 | 0.0 | 0.0 | 0.00 | 0.06 | 0.00 | 98 | 1004.7 |
| 20260831223056 | 54 | 141 | 0.0 | 0.0 | 0.00 | 0.06 | 0.00 | 98 | 1004.7 |
| 20260831221554 | 54 | 141 | 0.0 | 0.0 | 0.00 | 0.06 | 0.00 | 98 | 1004.7 |
| 20260831220052 | 54 | 141 | 0.0 | 0.0 | 0.00 | 0.06 | 0.06 | 98 | 1004.6 |
| 20260831214600 | 54 | 141 | 0.0 | 0.0 | 0.00 | 0.06 | 0.06 | 98 | 1004.6 |
| 20260831213057 | 53 | 141 | 0.0 | 0.0 | 0.00 | 0.06 | 0.06 | 98 | 1004.6 |
| 20260831211552 | 53 | 141 | 0.0 | 0.0 | 0.00 | 0.06 | 0.06 | 98 | 1004.6 |